Volver al catálogo

DELTA 1 DEB

ActivoSSO
NORAD 14908·DEBRIS·🇺🇸 United States

Lanzado Mar 5, 1978 desde Vandenberg Space Force Base

Loading…

Próximos Pases (próximas 24 horas)

TLE

ActualizadoSource: Space-Track

Época: Sep 14, 2026, 09:41 UTC

1 14908U 78026GH  26257.40359287  .00001166  00000-0  57513-3 0  9993
2 14908  99.0678 322.9239 0088431 274.7879  84.3201 14.17514954284262

Sigue DELTA 1 DEB en tiempo real con AllMySat

Download on the App Store